owner,sensor,date,latitude,longitude,vertical_datum,wind_speed,wind_to_direction,wind_speed_of_gust,qcFlag 
FIT,ioos:station:wmo:SIPF1:1,2019-08-01T00:00:00Z,27.8620,-80.4450,1.0,3.6,110.0,-9999.0,'11111222,11111222,99999999' 
FIT,ioos:station:wmo:SIPF1:1,2019-08-01T00:15:00Z,27.8620,-80.4450,1.0,2.6,110.0,-9999.0,'11111222,11111222,99999999' 
FIT,ioos:station:wmo:SIPF1:1,2019-08-01T00:30:00Z,27.8620,-80.4450,1.0,2.6,110.0,-9999.0,'11111222,11111222,99999999' 
FIT,ioos:station:wmo:SIPF1:1,2019-08-01T00:45:00Z,27.8620,-80.4450,1.0,2.1,130.0,-9999.0,'11111222,11111222,11111222' 
FIT,ioos:station:wmo:SIPF1:1,2019-08-01T01:00:00Z,27.8620,-80.4450,1.0,1.0,100.0,-9999.0,'11111222,11111222,99999999' 
FIT,ioos:station:wmo:SIPF1:1,2019-08-01T01:15:00Z,27.8620,-80.4450,1.0,0.0,-9999.0,-9999.0,'11111222,99999999,99999999' 
FIT,ioos:station:wmo:SIPF1:1,2019-08-01T01:30:00Z,27.8620,-80.4450,1.0,0.0,-9999.0,-9999.0,'11111222,99999999,99999999' 
FIT,ioos:station:wmo:SIPF1:1,2019-08-01T01:45:00Z,27.8620,-80.4450,1.0,1.0,100.0,-9999.0,'11111222,11111222,11111222' 
FIT,ioos:station:wmo:SIPF1:1,2019-08-01T02:00:00Z,27.8620,-80.4450,1.0,1.0,80.0,-9999.0,'11111222,11111222,99999999' 
FIT,ioos:station:wmo:SIPF1:1,2019-08-01T02:15:00Z,27.8620,-80.4450,1.0,0.5,90.0,-9999.0,'11111222,11111222,99999999' 
FIT,ioos:station:wmo:SIPF1:1,2019-08-01T02:30:00Z,27.8620,-80.4450,1.0,0.0,-9999.0,-9999.0,'11111222,99999999,99999999' 
FIT,ioos:station:wmo:SIPF1:1,2019-08-01T02:45:00Z,27.8620,-80.4450,1.0,2.1,340.0,-9999.0,'11111222,11111222,11111222' 
FIT,ioos:station:wmo:SIPF1:1,2019-08-01T03:00:00Z,27.8620,-80.4450,1.0,4.6,310.0,-9999.0,'11111222,11111222,99999999' 
FIT,ioos:station:wmo:SIPF1:1,2019-08-01T03:15:00Z,27.8620,-80.4450,1.0,5.1,320.0,-9999.0,'11111222,11111222,99999999' 
FIT,ioos:station:wmo:SIPF1:1,2019-08-01T03:30:00Z,27.8620,-80.4450,1.0,4.6,320.0,-9999.0,'11111222,11111222,99999999' 
FIT,ioos:station:wmo:SIPF1:1,2019-08-01T03:45:00Z,27.8620,-80.4450,1.0,2.6,320.0,-9999.0,'11111222,11111222,11111222' 
FIT,ioos:station:wmo:SIPF1:1,2019-08-01T04:00:00Z,27.8620,-80.4450,1.0,1.5,330.0,-9999.0,'11111222,11111222,99999999' 
FIT,ioos:station:wmo:SIPF1:1,2019-08-01T04:15:00Z,27.8620,-80.4450,1.0,2.6,30.0,-9999.0,'11111222,11111222,99999999' 
FIT,ioos:station:wmo:SIPF1:1,2019-08-01T04:30:00Z,27.8620,-80.4450,1.0,2.1,30.0,-9999.0,'11111222,11111222,99999999' 
FIT,ioos:station:wmo:SIPF1:1,2019-08-01T04:45:00Z,27.8620,-80.4450,1.0,2.6,360.0,-9999.0,'11111222,11144222,11111222' 
FIT,ioos:station:wmo:SIPF1:1,2019-08-01T05:00:00Z,27.8620,-80.4450,1.0,2.6,30.0,-9999.0,'11111222,11111222,99999999' 
FIT,ioos:station:wmo:SIPF1:1,2019-08-01T05:15:00Z,27.8620,-80.4450,1.0,2.6,30.0,-9999.0,'11111222,11111222,99999999' 
FIT,ioos:station:wmo:SIPF1:1,2019-08-01T05:30:00Z,27.8620,-80.4450,1.0,3.6,40.0,-9999.0,'11111222,11111222,99999999' 
FIT,ioos:station:wmo:SIPF1:1,2019-08-01T05:45:00Z,27.8620,-80.4450,1.0,3.1,40.0,-9999.0,'11111222,11111222,11111222' 
FIT,ioos:station:wmo:SIPF1:1,2019-08-01T06:00:00Z,27.8620,-80.4450,1.0,3.1,40.0,-9999.0,'11111222,11111222,99999999' 
FIT,ioos:station:wmo:SIPF1:1,2019-08-01T06:15:00Z,27.8620,-80.4450,1.0,3.1,50.0,-9999.0,'11111222,11111222,99999999' 
FIT,ioos:station:wmo:SIPF1:1,2019-08-01T06:30:00Z,27.8620,-80.4450,1.0,3.1,60.0,-9999.0,'11111222,11111222,99999999' 
FIT,ioos:station:wmo:SIPF1:1,2019-08-01T06:45:00Z,27.8620,-80.4450,1.0,2.6,70.0,-9999.0,'11111222,11111222,11111222' 
FIT,ioos:station:wmo:SIPF1:1,2019-08-01T07:00:00Z,27.8620,-80.4450,1.0,3.1,90.0,-9999.0,'11111222,11111222,99999999' 
FIT,ioos:station:wmo:SIPF1:1,2019-08-01T07:15:00Z,27.8620,-80.4450,1.0,3.1,90.0,-9999.0,'11111222,11111222,99999999' 
FIT,ioos:station:wmo:SIPF1:1,2019-08-01T07:30:00Z,27.8620,-80.4450,1.0,3.1,90.0,-9999.0,'11111222,11111222,99999999' 
FIT,ioos:station:wmo:SIPF1:1,2019-08-01T07:45:00Z,27.8620,-80.4450,1.0,3.6,100.0,-9999.0,'11111222,11111222,11111222' 
FIT,ioos:station:wmo:SIPF1:1,2019-08-01T08:00:00Z,27.8620,-80.4450,1.0,5.1,120.0,-9999.0,'11111222,11111222,99999999' 
FIT,ioos:station:wmo:SIPF1:1,2019-08-01T08:15:00Z,27.8620,-80.4450,1.0,5.7,120.0,-9999.0,'11111222,11111222,99999999' 
FIT,ioos:station:wmo:SIPF1:1,2019-08-01T08:30:00Z,27.8620,-80.4450,1.0,5.1,130.0,-9999.0,'11111222,11111222,99999999' 
FIT,ioos:station:wmo:SIPF1:1,2019-08-01T08:45:00Z,27.8620,-80.4450,1.0,3.6,120.0,-9999.0,'11111222,11111222,11111222' 
FIT,ioos:station:wmo:SIPF1:1,2019-08-01T09:00:00Z,27.8620,-80.4450,1.0,4.6,110.0,-9999.0,'11111222,11111222,99999999' 
FIT,ioos:station:wmo:SIPF1:1,2019-08-01T09:15:00Z,27.8620,-80.4450,1.0,4.1,100.0,-9999.0,'11111222,11111222,99999999' 
FIT,ioos:station:wmo:SIPF1:1,2019-08-01T09:30:00Z,27.8620,-80.4450,1.0,4.1,90.0,-9999.0,'11111222,11111222,99999999' 
FIT,ioos:station:wmo:SIPF1:1,2019-08-01T09:45:00Z,27.8620,-80.4450,1.0,3.1,100.0,-9999.0,'11111222,11111222,11111222' 
FIT,ioos:station:wmo:SIPF1:1,2019-08-01T10:00:00Z,27.8620,-80.4450,1.0,4.1,140.0,-9999.0,'11111222,11111222,99999999' 
FIT,ioos:station:wmo:SIPF1:1,2019-08-01T10:15:00Z,27.8620,-80.4450,1.0,6.7,150.0,-9999.0,'11111222,11111222,99999999' 
FIT,ioos:station:wmo:SIPF1:1,2019-08-01T10:30:00Z,27.8620,-80.4450,1.0,6.2,170.0,-9999.0,'11111222,11111222,99999999' 
FIT,ioos:station:wmo:SIPF1:1,2019-08-01T10:45:00Z,27.8620,-80.4450,1.0,5.1,180.0,-9999.0,'11111222,11111222,11111222' 
FIT,ioos:station:wmo:SIPF1:1,2019-08-01T11:00:00Z,27.8620,-80.4450,1.0,3.6,190.0,-9999.0,'11111222,11111222,99999999' 
FIT,ioos:station:wmo:SIPF1:1,2019-08-01T11:15:00Z,27.8620,-80.4450,1.0,3.1,190.0,-9999.0,'11111222,11111222,99999999' 
FIT,ioos:station:wmo:SIPF1:1,2019-08-01T11:30:00Z,27.8620,-80.4450,1.0,2.1,210.0,-9999.0,'11111222,11111222,99999999' 
FIT,ioos:station:wmo:SIPF1:1,2019-08-01T11:45:00Z,27.8620,-80.4450,1.0,1.5,200.0,-9999.0,'11111222,11111222,11111222' 
FIT,ioos:station:wmo:SIPF1:1,2019-08-01T12:00:00Z,27.8620,-80.4450,1.0,0.5,230.0,-9999.0,'11111222,11111222,99999999' 
FIT,ioos:station:wmo:SIPF1:1,2019-08-01T12:15:00Z,27.8620,-80.4450,1.0,1.0,280.0,-9999.0,'11111222,11111222,99999999' 
FIT,ioos:station:wmo:SIPF1:1,2019-08-01T12:30:00Z,27.8620,-80.4450,1.0,2.1,290.0,-9999.0,'11111222,11111222,99999999' 
FIT,ioos:station:wmo:SIPF1:1,2019-08-01T12:45:00Z,27.8620,-80.4450,1.0,2.1,280.0,-9999.0,'11111222,11111222,11111222' 
FIT,ioos:station:wmo:SIPF1:1,2019-08-01T13:00:00Z,27.8620,-80.4450,1.0,1.5,290.0,-9999.0,'11111222,11111222,99999999' 
FIT,ioos:station:wmo:SIPF1:1,2019-08-01T13:15:00Z,27.8620,-80.4450,1.0,1.0,290.0,-9999.0,'11111222,11111222,99999999' 
FIT,ioos:station:wmo:SIPF1:1,2019-08-01T13:30:00Z,27.8620,-80.4450,1.0,2.1,350.0,-9999.0,'11111222,11111222,99999999' 
FIT,ioos:station:wmo:SIPF1:1,2019-08-01T13:45:00Z,27.8620,-80.4450,1.0,3.1,360.0,-9999.0,'11111222,11144222,11111222' 
FIT,ioos:station:wmo:SIPF1:1,2019-08-01T14:00:00Z,27.8620,-80.4450,1.0,3.1,360.0,-9999.0,'11111222,11144222,99999999' 
FIT,ioos:station:wmo:SIPF1:1,2019-08-01T14:15:00Z,27.8620,-80.4450,1.0,3.6,360.0,-9999.0,'11111222,11144222,99999999' 
FIT,ioos:station:wmo:SIPF1:1,2019-08-01T14:30:00Z,27.8620,-80.4450,1.0,4.1,10.0,-9999.0,'11111222,11111222,11111222' 
FIT,ioos:station:wmo:SIPF1:1,2019-08-01T14:45:00Z,27.8620,-80.4450,1.0,3.6,10.0,-9999.0,'11111222,11111222,99999999' 
FIT,ioos:station:wmo:SIPF1:1,2019-08-01T15:00:00Z,27.8620,-80.4450,1.0,3.6,360.0,-9999.0,'11111222,11144222,99999999' 
FIT,ioos:station:wmo:SIPF1:1,2019-08-01T15:15:00Z,27.8620,-80.4450,1.0,3.6,10.0,-9999.0,'11111222,11111222,11111222' 
FIT,ioos:station:wmo:SIPF1:1,2019-08-01T15:30:00Z,27.8620,-80.4450,1.0,4.1,40.0,-9999.0,'11111222,11111222,99999999' 
FIT,ioos:station:wmo:SIPF1:1,2019-08-01T15:45:00Z,27.8620,-80.4450,1.0,6.7,90.0,-9999.0,'11111222,11111222,99999999' 
FIT,ioos:station:wmo:SIPF1:1,2019-08-01T16:00:00Z,27.8620,-80.4450,1.0,7.7,110.0,-9999.0,'11111222,11111222,99999999' 
FIT,ioos:station:wmo:SIPF1:1,2019-08-01T16:15:00Z,27.8620,-80.4450,1.0,7.7,100.0,-9999.0,'11111222,11111222,99999999' 
FIT,ioos:station:wmo:SIPF1:1,2019-08-01T16:30:00Z,27.8620,-80.4450,1.0,5.7,90.0,-9999.0,'11111222,11111222,99999999' 
FIT,ioos:station:wmo:SIPF1:1,2019-08-01T16:45:00Z,27.8620,-80.4450,1.0,7.7,100.0,-9999.0,'11111222,11111222,11111222' 
FIT,ioos:station:wmo:SIPF1:1,2019-08-01T17:00:00Z,27.8620,-80.4450,1.0,9.8,110.0,-9999.0,'11111222,11111222,99999999' 
FIT,ioos:station:wmo:SIPF1:1,2019-08-01T17:15:00Z,27.8620,-80.4450,1.0,7.7,130.0,-9999.0,'11111222,11111222,99999999' 
FIT,ioos:station:wmo:SIPF1:1,2019-08-01T17:30:00Z,27.8620,-80.4450,1.0,4.1,140.0,-9999.0,'11111222,11111222,99999999' 
FIT,ioos:station:wmo:SIPF1:1,2019-08-01T17:45:00Z,27.8620,-80.4450,1.0,1.0,160.0,-9999.0,'11111222,11111222,11111222' 
FIT,ioos:station:wmo:SIPF1:1,2019-08-01T18:00:00Z,27.8620,-80.4450,1.0,0.0,-9999.0,-9999.0,'11111222,99999999,99999999' 
FIT,ioos:station:wmo:SIPF1:1,2019-08-01T18:15:00Z,27.8620,-80.4450,1.0,1.0,40.0,-9999.0,'11111222,11111222,99999999' 
FIT,ioos:station:wmo:SIPF1:1,2019-08-01T18:30:00Z,27.8620,-80.4450,1.0,2.6,340.0,-9999.0,'11111222,11111222,99999999' 
FIT,ioos:station:wmo:SIPF1:1,2019-08-01T18:45:00Z,27.8620,-80.4450,1.0,2.1,360.0,-9999.0,'11111222,11144222,11111222' 
FIT,ioos:station:wmo:SIPF1:1,2019-08-01T19:00:00Z,27.8620,-80.4450,1.0,2.1,330.0,-9999.0,'11111222,11111222,99999999' 
FIT,ioos:station:wmo:SIPF1:1,2019-08-01T19:15:00Z,27.8620,-80.4450,1.0,4.1,330.0,-9999.0,'11111222,11111222,99999999' 
FIT,ioos:station:wmo:SIPF1:1,2019-08-01T19:30:00Z,27.8620,-80.4450,1.0,4.1,340.0,-9999.0,'11111222,11111222,99999999' 
FIT,ioos:station:wmo:SIPF1:1,2019-08-01T19:45:00Z,27.8620,-80.4450,1.0,5.1,350.0,-9999.0,'11111222,11111222,11111222' 
FIT,ioos:station:wmo:SIPF1:1,2019-08-01T20:00:00Z,27.8620,-80.4450,1.0,5.1,360.0,-9999.0,'11111222,11144222,99999999' 
FIT,ioos:station:wmo:SIPF1:1,2019-08-01T20:15:00Z,27.8620,-80.4450,1.0,4.6,360.0,-9999.0,'11111222,11144222,99999999' 
FIT,ioos:station:wmo:SIPF1:1,2019-08-01T20:30:00Z,27.8620,-80.4450,1.0,3.1,10.0,-9999.0,'11111222,11111222,99999999' 
FIT,ioos:station:wmo:SIPF1:1,2019-08-01T20:45:00Z,27.8620,-80.4450,1.0,5.1,20.0,-9999.0,'11111222,11111222,11111222' 
FIT,ioos:station:wmo:SIPF1:1,2019-08-01T21:00:00Z,27.8620,-80.4450,1.0,5.7,40.0,-9999.0,'11111222,11111222,99999999' 
FIT,ioos:station:wmo:SIPF1:1,2019-08-01T21:15:00Z,27.8620,-80.4450,1.0,6.2,130.0,-9999.0,'11111222,11111222,99999999' 
FIT,ioos:station:wmo:SIPF1:1,2019-08-01T21:30:00Z,27.8620,-80.4450,1.0,5.1,120.0,-9999.0,'11111222,11111222,99999999' 
FIT,ioos:station:wmo:SIPF1:1,2019-08-01T21:45:00Z,27.8620,-80.4450,1.0,7.2,130.0,-9999.0,'11111222,11111222,11111222' 
FIT,ioos:station:wmo:SIPF1:1,2019-08-01T22:00:00Z,27.8620,-80.4450,1.0,4.6,120.0,-9999.0,'11111222,11111222,99999999' 
FIT,ioos:station:wmo:SIPF1:1,2019-08-01T22:15:00Z,27.8620,-80.4450,1.0,3.6,80.0,-9999.0,'11111222,11111222,99999999' 
FIT,ioos:station:wmo:SIPF1:1,2019-08-01T22:30:00Z,27.8620,-80.4450,1.0,3.1,80.0,-9999.0,'11111222,11111222,99999999' 
FIT,ioos:station:wmo:SIPF1:1,2019-08-01T22:45:00Z,27.8620,-80.4450,1.0,3.1,50.0,-9999.0,'11111222,11111222,11111222' 
FIT,ioos:station:wmo:SIPF1:1,2019-08-01T23:00:00Z,27.8620,-80.4450,1.0,3.6,30.0,-9999.0,'11111222,11111222,99999999' 
FIT,ioos:station:wmo:SIPF1:1,2019-08-01T23:15:00Z,27.8620,-80.4450,1.0,5.1,20.0,-9999.0,'11111222,11111222,99999999' 
FIT,ioos:station:wmo:SIPF1:1,2019-08-01T23:30:00Z,27.8620,-80.4450,1.0,7.2,360.0,-9999.0,'11111222,11144222,99999999' 
FIT,ioos:station:wmo:SIPF1:1,2019-08-01T23:45:00Z,27.8620,-80.4450,1.0,6.7,360.0,-9999.0,'11111222,11144222,11111222' 
FIT,ioos:station:wmo:SIPF1:1,2019-08-02T00:00:00Z,27.8620,-80.4450,1.0,7.2,10.0,-9999.0,'11111222,11111222,99999999' 
FIT,ioos:station:wmo:SIPF1:1,2019-08-02T00:15:00Z,27.8620,-80.4450,1.0,7.2,10.0,-9999.0,'11111222,11111222,99999999' 
FIT,ioos:station:wmo:SIPF1:1,2019-08-02T00:30:00Z,27.8620,-80.4450,1.0,6.7,20.0,-9999.0,'11111222,11111222,99999999' 
FIT,ioos:station:wmo:SIPF1:1,2019-08-02T00:45:00Z,27.8620,-80.4450,1.0,6.7,20.0,-9999.0,'11111222,11111222,11111222' 
FIT,ioos:station:wmo:SIPF1:1,2019-08-02T01:00:00Z,27.8620,-80.4450,1.0,7.2,40.0,-9999.0,'11111222,11111222,99999999' 
FIT,ioos:station:wmo:SIPF1:1,2019-08-02T01:15:00Z,27.8620,-80.4450,1.0,7.2,60.0,-9999.0,'11111222,11111222,99999999' 
FIT,ioos:station:wmo:SIPF1:1,2019-08-02T01:30:00Z,27.8620,-80.4450,1.0,7.2,60.0,-9999.0,'11111222,11111222,99999999' 
FIT,ioos:station:wmo:SIPF1:1,2019-08-02T01:45:00Z,27.8620,-80.4450,1.0,7.7,60.0,-9999.0,'11111222,11111222,11111222' 
FIT,ioos:station:wmo:SIPF1:1,2019-08-02T02:00:00Z,27.8620,-80.4450,1.0,8.2,60.0,-9999.0,'11111222,11111222,99999999' 
FIT,ioos:station:wmo:SIPF1:1,2019-08-02T02:15:00Z,27.8620,-80.4450,1.0,7.7,60.0,-9999.0,'11111222,11111222,99999999' 
FIT,ioos:station:wmo:SIPF1:1,2019-08-02T02:30:00Z,27.8620,-80.4450,1.0,8.2,70.0,-9999.0,'11111222,11111222,99999999' 
FIT,ioos:station:wmo:SIPF1:1,2019-08-02T02:45:00Z,27.8620,-80.4450,1.0,7.7,70.0,-9999.0,'11111222,11111222,11111222' 
FIT,ioos:station:wmo:SIPF1:1,2019-08-02T03:00:00Z,27.8620,-80.4450,1.0,7.7,80.0,-9999.0,'11111222,11111222,99999999' 
FIT,ioos:station:wmo:SIPF1:1,2019-08-02T03:15:00Z,27.8620,-80.4450,1.0,7.7,100.0,-9999.0,'11111222,11111222,99999999' 
FIT,ioos:station:wmo:SIPF1:1,2019-08-02T03:30:00Z,27.8620,-80.4450,1.0,7.2,100.0,-9999.0,'11111222,11111222,99999999' 
FIT,ioos:station:wmo:SIPF1:1,2019-08-02T03:45:00Z,27.8620,-80.4450,1.0,6.7,110.0,-9999.0,'11111222,11111222,11111222' 
FIT,ioos:station:wmo:SIPF1:1,2019-08-02T04:00:00Z,27.8620,-80.4450,1.0,6.2,100.0,-9999.0,'11111222,11111222,99999999' 
FIT,ioos:station:wmo:SIPF1:1,2019-08-02T04:15:00Z,27.8620,-80.4450,1.0,6.7,100.0,-9999.0,'11111222,11111222,99999999' 
FIT,ioos:station:wmo:SIPF1:1,2019-08-02T04:30:00Z,27.8620,-80.4450,1.0,7.2,100.0,-9999.0,'11111222,11111222,99999999' 
FIT,ioos:station:wmo:SIPF1:1,2019-08-02T04:45:00Z,27.8620,-80.4450,1.0,7.2,100.0,-9999.0,'11111222,11111222,11111222' 
FIT,ioos:station:wmo:SIPF1:1,2019-08-02T05:00:00Z,27.8620,-80.4450,1.0,7.7,100.0,-9999.0,'11111222,11111222,99999999' 
FIT,ioos:station:wmo:SIPF1:1,2019-08-02T05:15:00Z,27.8620,-80.4450,1.0,8.8,110.0,-9999.0,'11111222,11111222,99999999' 
FIT,ioos:station:wmo:SIPF1:1,2019-08-02T05:30:00Z,27.8620,-80.4450,1.0,8.8,110.0,-9999.0,'11111222,11111222,99999999' 
FIT,ioos:station:wmo:SIPF1:1,2019-08-02T05:45:00Z,27.8620,-80.4450,1.0,8.8,120.0,-9999.0,'11111222,11111222,11111222' 
FIT,ioos:station:wmo:SIPF1:1,2019-08-02T06:00:00Z,27.8620,-80.4450,1.0,8.2,120.0,-9999.0,'11111222,11111222,99999999' 
FIT,ioos:station:wmo:SIPF1:1,2019-08-02T06:15:00Z,27.8620,-80.4450,1.0,8.8,120.0,-9999.0,'11111222,11111222,99999999' 
FIT,ioos:station:wmo:SIPF1:1,2019-08-02T06:30:00Z,27.8620,-80.4450,1.0,9.3,120.0,-9999.0,'11111222,11111222,99999999' 
FIT,ioos:station:wmo:SIPF1:1,2019-08-02T06:45:00Z,27.8620,-80.4450,1.0,9.3,130.0,-9999.0,'11111222,11111222,11111222' 
FIT,ioos:station:wmo:SIPF1:1,2019-08-02T07:00:00Z,27.8620,-80.4450,1.0,10.3,130.0,-9999.0,'11111222,11111222,99999999' 
FIT,ioos:station:wmo:SIPF1:1,2019-08-02T07:15:00Z,27.8620,-80.4450,1.0,9.8,130.0,-9999.0,'11111222,11111222,99999999' 
FIT,ioos:station:wmo:SIPF1:1,2019-08-02T07:30:00Z,27.8620,-80.4450,1.0,8.2,120.0,-9999.0,'11111222,11111222,99999999' 
FIT,ioos:station:wmo:SIPF1:1,2019-08-02T07:45:00Z,27.8620,-80.4450,1.0,8.2,130.0,-9999.0,'11111222,11111222,11111222' 
FIT,ioos:station:wmo:SIPF1:1,2019-08-02T08:00:00Z,27.8620,-80.4450,1.0,8.2,130.0,-9999.0,'11111222,11111222,99999999' 
FIT,ioos:station:wmo:SIPF1:1,2019-08-02T08:15:00Z,27.8620,-80.4450,1.0,7.2,140.0,-9999.0,'11111222,11111222,99999999' 
FIT,ioos:station:wmo:SIPF1:1,2019-08-02T08:30:00Z,27.8620,-80.4450,1.0,7.7,140.0,-9999.0,'11111222,11111222,99999999' 
FIT,ioos:station:wmo:SIPF1:1,2019-08-02T08:45:00Z,27.8620,-80.4450,1.0,6.7,140.0,-9999.0,'11111222,11111222,11111222' 
FIT,ioos:station:wmo:SIPF1:1,2019-08-02T09:00:00Z,27.8620,-80.4450,1.0,6.7,140.0,-9999.0,'11111222,11111222,99999999' 
FIT,ioos:station:wmo:SIPF1:1,2019-08-02T09:15:00Z,27.8620,-80.4450,1.0,7.2,130.0,-9999.0,'11111222,11111222,99999999' 
FIT,ioos:station:wmo:SIPF1:1,2019-08-02T09:45:00Z,27.8620,-80.4450,1.0,7.7,140.0,-9999.0,'11111222,11111222,11111222' 
FIT,ioos:station:wmo:SIPF1:1,2019-08-02T10:00:00Z,27.8620,-80.4450,1.0,7.7,140.0,-9999.0,'11111222,11111222,99999999' 
FIT,ioos:station:wmo:SIPF1:1,2019-08-02T10:15:00Z,27.8620,-80.4450,1.0,7.2,140.0,-9999.0,'11111222,11111222,99999999' 
FIT,ioos:station:wmo:SIPF1:1,2019-08-02T10:30:00Z,27.8620,-80.4450,1.0,6.2,150.0,-9999.0,'11111222,11111222,99999999' 
FIT,ioos:station:wmo:SIPF1:1,2019-08-02T10:45:00Z,27.8620,-80.4450,1.0,6.2,160.0,-9999.0,'11111222,11111222,11111222' 
FIT,ioos:station:wmo:SIPF1:1,2019-08-02T11:00:00Z,27.8620,-80.4450,1.0,5.1,170.0,-9999.0,'11111222,11111222,99999999' 
FIT,ioos:station:wmo:SIPF1:1,2019-08-02T11:15:00Z,27.8620,-80.4450,1.0,5.1,190.0,-9999.0,'11111222,11111222,99999999' 
FIT,ioos:station:wmo:SIPF1:1,2019-08-02T11:30:00Z,27.8620,-80.4450,1.0,4.6,200.0,-9999.0,'11111222,11111222,99999999' 
FIT,ioos:station:wmo:SIPF1:1,2019-08-02T11:45:00Z,27.8620,-80.4450,1.0,2.6,190.0,-9999.0,'11111222,11111222,11111222' 
FIT,ioos:station:wmo:SIPF1:1,2019-08-02T12:00:00Z,27.8620,-80.4450,1.0,3.1,180.0,-9999.0,'11111222,11111222,99999999' 
FIT,ioos:station:wmo:SIPF1:1,2019-08-02T12:15:00Z,27.8620,-80.4450,1.0,3.6,180.0,-9999.0,'11111222,11111222,99999999' 
FIT,ioos:station:wmo:SIPF1:1,2019-08-02T12:30:00Z,27.8620,-80.4450,1.0,6.2,190.0,-9999.0,'11111222,11111222,99999999' 
FIT,ioos:station:wmo:SIPF1:1,2019-08-02T12:45:00Z,27.8620,-80.4450,1.0,5.7,190.0,-9999.0,'11111222,11111222,11111222' 
FIT,ioos:station:wmo:SIPF1:1,2019-08-02T13:00:00Z,27.8620,-80.4450,1.0,4.1,170.0,-9999.0,'11111222,11111222,99999999' 
FIT,ioos:station:wmo:SIPF1:1,2019-08-02T13:15:00Z,27.8620,-80.4450,1.0,4.1,170.0,-9999.0,'11111222,11111222,99999999' 
FIT,ioos:station:wmo:SIPF1:1,2019-08-02T13:30:00Z,27.8620,-80.4450,1.0,3.1,180.0,-9999.0,'11111222,11111222,99999999' 
FIT,ioos:station:wmo:SIPF1:1,2019-08-02T13:45:00Z,27.8620,-80.4450,1.0,2.6,180.0,-9999.0,'11111222,11111222,11111222' 
FIT,ioos:station:wmo:SIPF1:1,2019-08-02T14:00:00Z,27.8620,-80.4450,1.0,3.1,170.0,-9999.0,'11111222,11111222,99999999' 
FIT,ioos:station:wmo:SIPF1:1,2019-08-02T14:15:00Z,27.8620,-80.4450,1.0,3.6,160.0,-9999.0,'11111222,11111222,99999999' 
FIT,ioos:station:wmo:SIPF1:1,2019-08-02T14:30:00Z,27.8620,-80.4450,1.0,3.1,170.0,-9999.0,'11111222,11111222,99999999' 
FIT,ioos:station:wmo:SIPF1:1,2019-08-02T14:45:00Z,27.8620,-80.4450,1.0,3.6,150.0,-9999.0,'11111222,11111222,11111222' 
FIT,ioos:station:wmo:SIPF1:1,2019-08-02T15:00:00Z,27.8620,-80.4450,1.0,3.1,150.0,-9999.0,'11111222,11111222,99999999' 
FIT,ioos:station:wmo:SIPF1:1,2019-08-02T15:15:00Z,27.8620,-80.4450,1.0,2.6,130.0,-9999.0,'11111222,11111222,99999999' 
FIT,ioos:station:wmo:SIPF1:1,2019-08-02T15:30:00Z,27.8620,-80.4450,1.0,2.1,120.0,-9999.0,'11111222,11111222,99999999' 
FIT,ioos:station:wmo:SIPF1:1,2019-08-02T15:45:00Z,27.8620,-80.4450,1.0,2.1,110.0,-9999.0,'11111222,11111222,11111222' 
FIT,ioos:station:wmo:SIPF1:1,2019-08-02T16:00:00Z,27.8620,-80.4450,1.0,3.1,110.0,-9999.0,'11111222,11111222,99999999' 
FIT,ioos:station:wmo:SIPF1:1,2019-08-02T16:15:00Z,27.8620,-80.4450,1.0,3.6,120.0,-9999.0,'11111222,11111222,99999999' 
FIT,ioos:station:wmo:SIPF1:1,2019-08-02T16:30:00Z,27.8620,-80.4450,1.0,2.6,130.0,-9999.0,'11111222,11111222,99999999' 
FIT,ioos:station:wmo:SIPF1:1,2019-08-02T16:45:00Z,27.8620,-80.4450,1.0,2.1,80.0,-9999.0,'11111222,11111222,11111222' 
FIT,ioos:station:wmo:SIPF1:1,2019-08-02T17:00:00Z,27.8620,-80.4450,1.0,2.1,10.0,-9999.0,'11111222,11111222,99999999' 
FIT,ioos:station:wmo:SIPF1:1,2019-08-02T17:15:00Z,27.8620,-80.4450,1.0,3.1,340.0,-9999.0,'11111222,11111222,99999999' 
FIT,ioos:station:wmo:SIPF1:1,2019-08-02T17:30:00Z,27.8620,-80.4450,1.0,4.6,340.0,-9999.0,'11111222,11111222,99999999' 
FIT,ioos:station:wmo:SIPF1:1,2019-08-02T17:45:00Z,27.8620,-80.4450,1.0,4.1,320.0,-9999.0,'11111222,11111222,11111222' 
FIT,ioos:station:wmo:SIPF1:1,2019-08-02T18:00:00Z,27.8620,-80.4450,1.0,5.1,300.0,-9999.0,'11111222,11111222,99999999' 
FIT,ioos:station:wmo:SIPF1:1,2019-08-02T18:15:00Z,27.8620,-80.4450,1.0,6.2,290.0,-9999.0,'11111222,11111222,99999999' 
FIT,ioos:station:wmo:SIPF1:1,2019-08-02T18:30:00Z,27.8620,-80.4450,1.0,7.2,330.0,-9999.0,'11111222,11111222,99999999' 
FIT,ioos:station:wmo:SIPF1:1,2019-08-02T18:45:00Z,27.8620,-80.4450,1.0,6.2,40.0,-9999.0,'11111222,11111222,11111222' 
FIT,ioos:station:wmo:SIPF1:1,2019-08-02T19:00:00Z,27.8620,-80.4450,1.0,6.2,40.0,-9999.0,'11111222,11111222,99999999' 
FIT,ioos:station:wmo:SIPF1:1,2019-08-02T19:15:00Z,27.8620,-80.4450,1.0,6.7,30.0,-9999.0,'11111222,11111222,99999999' 
FIT,ioos:station:wmo:SIPF1:1,2019-08-02T19:30:00Z,27.8620,-80.4450,1.0,4.6,10.0,-9999.0,'11111222,11111222,99999999' 
FIT,ioos:station:wmo:SIPF1:1,2019-08-02T19:45:00Z,27.8620,-80.4450,1.0,3.6,360.0,-9999.0,'11111222,11144222,11111222' 
FIT,ioos:station:wmo:SIPF1:1,2019-08-02T20:00:00Z,27.8620,-80.4450,1.0,4.1,360.0,-9999.0,'11111222,11144222,99999999' 
FIT,ioos:station:wmo:SIPF1:1,2019-08-02T20:15:00Z,27.8620,-80.4450,1.0,5.1,10.0,-9999.0,'11111222,11111222,99999999' 
FIT,ioos:station:wmo:SIPF1:1,2019-08-02T20:30:00Z,27.8620,-80.4450,1.0,7.7,10.0,-9999.0,'11111222,11111222,99999999' 
FIT,ioos:station:wmo:SIPF1:1,2019-08-02T20:45:00Z,27.8620,-80.4450,1.0,8.8,10.0,-9999.0,'11111222,11111222,11111222' 
FIT,ioos:station:wmo:SIPF1:1,2019-08-02T21:00:00Z,27.8620,-80.4450,1.0,8.2,10.0,-9999.0,'11111222,11111222,99999999' 
FIT,ioos:station:wmo:SIPF1:1,2019-08-02T21:15:00Z,27.8620,-80.4450,1.0,8.8,10.0,-9999.0,'11111222,11111222,99999999' 
FIT,ioos:station:wmo:SIPF1:1,2019-08-02T21:30:00Z,27.8620,-80.4450,1.0,8.2,10.0,-9999.0,'11111222,11111222,99999999' 
FIT,ioos:station:wmo:SIPF1:1,2019-08-02T21:45:00Z,27.8620,-80.4450,1.0,8.8,20.0,-9999.0,'11111222,11111222,11111222' 
FIT,ioos:station:wmo:SIPF1:1,2019-08-02T22:00:00Z,27.8620,-80.4450,1.0,7.7,50.0,-9999.0,'11111222,11111222,99999999' 
FIT,ioos:station:wmo:SIPF1:1,2019-08-02T22:15:00Z,27.8620,-80.4450,1.0,5.7,30.0,-9999.0,'11111222,11111222,99999999' 
FIT,ioos:station:wmo:SIPF1:1,2019-08-02T22:30:00Z,27.8620,-80.4450,1.0,5.1,40.0,-9999.0,'11111222,11111222,99999999' 
FIT,ioos:station:wmo:SIPF1:1,2019-08-02T22:45:00Z,27.8620,-80.4450,1.0,4.6,60.0,-9999.0,'11111222,11111222,11111222' 
FIT,ioos:station:wmo:SIPF1:1,2019-08-02T23:00:00Z,27.8620,-80.4450,1.0,6.7,120.0,-9999.0,'11111222,11111222,99999999' 
FIT,ioos:station:wmo:SIPF1:1,2019-08-02T23:15:00Z,27.8620,-80.4450,1.0,7.2,140.0,-9999.0,'11111222,11111222,99999999' 
FIT,ioos:station:wmo:SIPF1:1,2019-08-02T23:30:00Z,27.8620,-80.4450,1.0,5.1,140.0,-9999.0,'11111222,11111222,99999999' 
FIT,ioos:station:wmo:SIPF1:1,2019-08-02T23:45:00Z,27.8620,-80.4450,1.0,3.1,100.0,-9999.0,'11111222,11111222,11111222' 
FIT,ioos:station:wmo:SIPF1:1,2019-08-03T00:00:00Z,27.8620,-80.4450,1.0,3.6,130.0,-9999.0,'11111222,11111222,99999999' 
FIT,ioos:station:wmo:SIPF1:1,2019-08-03T00:15:00Z,27.8620,-80.4450,1.0,4.6,100.0,-9999.0,'11111222,11111222,99999999' 
FIT,ioos:station:wmo:SIPF1:1,2019-08-03T00:30:00Z,27.8620,-80.4450,1.0,4.6,100.0,-9999.0,'11111222,11111222,99999999' 
FIT,ioos:station:wmo:SIPF1:1,2019-08-03T00:45:00Z,27.8620,-80.4450,1.0,4.6,90.0,-9999.0,'11111222,11111222,11111222' 
FIT,ioos:station:wmo:SIPF1:1,2019-08-03T01:00:00Z,27.8620,-80.4450,1.0,2.6,80.0,-9999.0,'11111222,11111222,99999999' 
FIT,ioos:station:wmo:SIPF1:1,2019-08-03T01:15:00Z,27.8620,-80.4450,1.0,1.5,40.0,-9999.0,'11111222,11111222,99999999' 
FIT,ioos:station:wmo:SIPF1:1,2019-08-03T01:30:00Z,27.8620,-80.4450,1.0,0.0,-9999.0,-9999.0,'11111222,99999999,99999999' 
FIT,ioos:station:wmo:SIPF1:1,2019-08-03T01:45:00Z,27.8620,-80.4450,1.0,0.5,160.0,-9999.0,'11111222,11111222,11111222' 
FIT,ioos:station:wmo:SIPF1:1,2019-08-03T02:00:00Z,27.8620,-80.4450,1.0,1.0,230.0,-9999.0,'11111222,11111222,99999999' 
FIT,ioos:station:wmo:SIPF1:1,2019-08-03T02:15:00Z,27.8620,-80.4450,1.0,1.5,240.0,-9999.0,'11111222,11111222,99999999' 